Pagina principale
METAR-TAF:

METAR-TAF

Aeroporti :

Kahmishli, Siria

latitudine: 37-03N, longitudine: 041-13E, altezza: 455 m

Osservazione

Il bollettino è stato emesso 2 ore e 15 minuti fa, alle 16:00 UTC
Vento 2 kt da sud/sud-ovest
Temperature 12°C
Umidità 38%
Pressione 1018 hPa
Visibilità 10 km o più
nessuna nube inferiore a 1500 m e nessun cumulonembo

METAR: OSKL 211600Z 20002KT CAVOK 12/M02 Q1018

Ora: 20:15 (18:15 UTC)


TAF: mancante

Osservazioni e previsioni meteorologiche di più di 4000 aeroporti (messaggi METAR e TAF).

Le stazioni disponibili sono rappresentate dai dischi gialli e rossi sulla carta.

Puntare il mouse per vedere il nome della stazione.

Clicca sopra per visualizzare le osservazioni e previsioni meteorologiche.

Per cambiare la mappa : fare clic sui pulsanti verdi con una croce nera per ingrandire, il pulsante verde con un trattino per diminuire, o sulla freccia verde per le mappe adiacenti.


METAR-TAF: